FENGYUN 1C DEB

Satellite information

Favourite Embed

Satellite Type and Status

DEBRISIN ORBIT

Key statistics

Satellite FENGYUN 1C DEB at a glance.

Uptime

9555

Days in orbit

Revolutions

≈ 14.2

Per day

Orbit

SSO

Sun Synchronous Orbit

Inclination

98.6

Latest

Satellite identification and parameters

Extended collection of information and parameters for FENGYUN 1C DEB.

Object identification

Identified? True

Debris? True

Object name: FENGYUN 1C DEB

International designator: 1999-025BAA

Object number (NORAD): 30936

Object ID (CCSDS): 30936

Country: PEOPLES REPUBLIC OF CHINA (PRC)

Current information (Y/N): Y

RCS size: SMALL

Orbital parameters

Period: 101.198 minutes

Inclination: 98.597 deg

SMA: 7193.502 km

Apoapsis: 849.805 km

Periapsis: 780.928 km

RAAN: 222.2297 deg

Eccentricy: 0.0047875

Argument of periapsis: 34.7257 deg

Mean anomaly: 119.8009 deg

Mean motion: 14.22958555 rev/day

Mean motion (dot): 0.00000767 rev/day2

B* drag term: 0.00035548 1/REarth

Two-line elements (TLE)

Creation date: July 6, 2025, 6:05 p.m.

Reference frame: TEME

Reference center: EARTH

Epoch: July 6, 2025, 2:31 p.m. UTC

TLE line 0: 0 FENGYUN 1C DEB

TLE line 1: 1 30936U 99025BAA 25187.60542105 .00000767 00000-0 35548-3 0 9990

TLE line 2: 2 30936 98.5970 222.2297 0047875 34.7257 119.8009 14.22958555948696

Live tracking on map

Real-time ground track for satellite FENGYUN 1C DEB.

In-orbit conjunctions

A list of the most updated potential collisions computed for object FENGYUN 1C DEB.

Target Orbit TCA Probability of collision Miss distance Type
COSMOS 1275 DEB LEO 2025-03-15 08:03:02 0.0001514187 72.0 (m) DEBRIS
DODECAPOLE 2 SSO 2024-12-28 09:57:55 0.0005952382 780.0 (m) PAYLOAD
SL-16 DEB LEO 2024-05-30 11:05:26 0.0001412759 95.0 (m) DEBRIS

Associated space launch

Chinese polar orbiting meteorological satellite

FENGYUN 1C DEB was lifted into orbit during the mission ‘Long March 4B | Feng Yun 1C’, on board a Long March 4B space rocket.

The launch took place on May 10, 1999, 1:33 a.m. from Launch Complex 7.

For more information about the launch, click the button.

Launch to space Long March 4B | Feng Yun 1C
Long March 4B | Feng Yun 1C

Agency: N/A

Status: Launch Successful

Launch date: May 10, 1999, 1:33 a.m. UTC

Rocket: Long March 4B

Launch pad: Launch Complex 7

Location: Taiyuan Satellite Launch Center, People's Republic of China

...

Latest news about this satellite

There are no fresh news available about this satellite. Check back as we update our databases every day.


Newsletter sign-up

Weekly statistics, charts and insights to help you stay on top of the space industry.